1487059200.77,14732,11.81,74412.0,0.47,-31.79,-32.35,0,*46
1487059201.99,14733,11.81,74406.0,0.45,-31.79,-32.45,0,*42
1487059203.21,14734,11.81,74404.8,0.45,-32.45,-33.03,0,*4A
1487059204.42,14735,11.81,74408.0,0.45,-32.35,-32.97,0,*40
1487059205.63,14736,11.81,74404.0,0.45,-32.45,-33.15,0,*4F
1487059206.83,14737,11.81,74406.5,0.43,-32.13,-32.51,0,*4A
1487059208.04,14738,11.81,74408.5,0.43,-32.29,-32.91,0,*40
1487059209.25,14739,11.81,74406.0,0.43,-31.61,-32.13,0,*44
1487059210.47,14740,11.81,74410.3,0.43,-32.13,-32.75,0,*4C
1487059211.71,14741,11.81,74410.0,0.41,-32.19,-32.57,0,*45
1487059212.97,14742,11.81,74410.0,0.41,-31.11,-31.51,0,*48
1487059214.16,14743,11.81,74408.0,0.43,-31.17,-31.67,0,*48
1487059215.37,14744,11.81,74410.8,0.43,-31.67,-32.29,0,*41
1487059216.56,14745,11.81,74404.5,0.43,-31.45,-32.01,0,*4A
1487059217.81,14746,11.81,74410.3,0.45,-31.39,-32.07,0,*42
1487059219.05,14747,11.81,74406.8,0.43,-31.61,-32.19,0,*47
1487059220.27,14748,11.81,74408.3,0.43,-31.45,-31.95,0,*49
1487059221.47,14749,11.81,74408.3,0.43,-31.45,-32.01,0,*46
1487059222.68,14750,11.81,74404.8,0.43,-31.67,-32.19,0,*47
1487059223.9,14751,11.81,74408.0,0.43,-31.67,-32.19,0,*46
1487059225.08,14752,11.81,74410.8,0.43,-31.33,-32.13,0,*4E
1487059226.28,14753,11.81,74404.3,0.43,-32.13,-32.69,0,*43
1487059227.5,14754,11.81,74404.8,0.45,-31.23,-31.79,0,*40
1487059228.72,14755,11.81,74408.3,0.45,-30.83,-31.39,0,*4E
1487059229.97,14756,11.81,74408.5,0.47,-31.95,-32.51,0,*44
1487059231.19,14757,11.81,74410.3,0.45,-31.73,-32.23,0,*4A
1487059232.42,14758,11.81,74410.3,0.45,-30.89,-31.29,0,*48
1487059233.61,14759,11.81,74410.5,0.45,-31.01,-31.45,0,*42
1487059234.85,14760,11.81,74410.5,0.47,-31.39,-32.13,0,*41
1487059236.07,14761,11.81,74408.5,0.47,-31.79,-32.35,0,*40
1487059237.31,14762,11.81,74408.8,0.45,-31.39,-31.95,0,*4C
1487059238.56,14763,11.81,74412.3,0.47,-31.05,-31.61,0,*4B
1487059239.83,14764,11.81,74410.3,0.47,-31.39,-31.95,0,*48
1487059241.06,14765,11.81,74410.8,0.47,-31.01,-31.57,0,*4C
1487059242.3,14766,11.81,74412.3,0.47,-31.79,-32.29,0,*4A
1487059243.55,14767,11.81,74406.8,0.47,-31.61,-32.23,0,*48
1487059244.82,14768,11.81,74410.0,0.47,-31.57,-32.07,0,*44
1487059246.07,14769,11.81,74408.8,0.47,-31.61,-32.23,0,*46
1487059247.31,14770,11.81,74412.8,0.51,-31.51,-32.23,0,*4A
1487059248.55,14771,11.81,74410.5,0.47,-31.79,-32.45,0,*46
1487059249.8,14772,11.81,74410.0,0.47,-31.91,-32.35,0,*44
1487059251.04,14773,11.81,74412.5,0.47,-31.91,-32.35,0,*45
1487059252.28,14774,11.81,74408.3,0.47,-31.29,-31.61,0,*43
1487059253.55,14775,11.81,74410.3,0.47,-31.23,-31.57,0,*4D
1487059254.78,14776,11.81,74410.8,0.51,-30.67,-31.17,0,*4C
1487059256.0,14777,11.81,74410.0,0.51,-30.33,-30.83,0,*40
1487059257.24,14778,11.81,74410.0,0.51,-30.27,-30.95,0,*4D
1487059258.45,14779,11.81,74408.8,0.53,-30.45,-30.95,0,*4A
1487059259.66,14780,11.81,74408.0,0.53,-31.33,-31.91,0,*49
1487059260.87,14781,11.81,74408.5,0.53,-30.77,-31.33,0,*41
1487059262.08,14782,11.81,74406.0,0.53,-30.51,-31.01,0,*47
1487059263.32,14783,11.81,74410.8,0.53,-30.95,-31.57,0,*4D
1487059264.53,14784,11.81,74408.0,0.57,-30.73,-31.17,0,*42
1487059265.77,14785,11.81,74408.3,0.55,-31.61,-32.23,0,*47
1487059267.02,14786,11.81,74406.3,0.55,-31.61,-32.01,0,*44
1487059268.23,14787,11.81,74414.5,0.57,-30.77,-31.29,0,*48
1487059269.47,14788,11.81,74406.8,0.57,-30.89,-31.51,0,*49
1487059270.68,14789,11.81,74410.0,0.57,-31.11,-31.67,0,*4D
1487059271.89,14790,11.81,74408.5,0.57,-31.01,-31.51,0,*41
1487059273.12,14791,11.81,74408.3,0.59,-30.55,-31.05,0,*4F
1487059274.36,14792,11.81,74410.3,0.59,-30.33,-30.95,0,*44
1487059275.59,14793,11.81,74410.5,0.61,-30.17,-30.83,0,*4F
1487059276.79,14794,11.81,74408.8,0.59,-31.05,-31.67,0,*4A
1487059278.01,14795,11.81,74410.5,0.61,-30.83,-31.39,0,*44
1487059279.26,14796,11.81,74412.0,0.59,-31.45,-32.07,0,*49
1487059280.5,14797,11.81,74414.0,0.61,-30.89,-31.51,0,*42
1487059281.74,14798,11.81,74408.3,0.63,-30.83,-31.51,0,*45
1487059282.97,14799,11.81,74408.3,0.61,-30.67,-31.23,0,*49
1487059284.19,14800,11.81,74408.8,0.63,-30.67,-31.17,0,*43
1487059285.45,14801,11.81,74410.5,0.63,-31.73,-32.29,0,*48
1487059286.73,14802,11.81,74408.3,0.63,-32.07,-32.75,0,*42
1487059287.94,14803,11.81,74410.0,0.63,-32.57,-33.15,0,*41
1487059289.18,14804,11.81,74410.8,0.63,-31.67,-32.07,0,*44
1487059290.39,14805,11.81,74408.3,0.61,-31.39,-32.01,0,*4A
1487059291.64,14806,11.81,74410.5,0.61,-31.23,-31.91,0,*48
1487059292.9,14807,11.81,74410.5,0.59,-32.29,-32.79,0,*4E
1487059294.17,14808,11.81,74412.5,0.59,-31.91,-32.45,0,*4E
1487059295.35,14809,11.81,74408.5,0.61,-31.17,-31.67,0,*49
1487059296.62,14810,11.81,74410.5,0.63,-30.77,-31.23,0,*44
1487059297.82,14811,11.81,74408.5,0.61,-30.67,-31.17,0,*41
1487059299.06,14812,11.81,74410.8,0.61,-31.23,-31.85,0,*48
1487059300.24,14813,11.81,74408.8,0.65,-31.01,-31.67,0,*41
1487059301.42,14814,11.81,74408.3,0.65,-30.45,-31.01,0,*47
1487059302.66,14815,11.81,74414.0,0.63,-31.05,-31.51,0,*40
1487059303.9,14816,11.81,74410.0,0.63,-31.91,-32.57,0,*4B
1487059305.14,14817,11.81,74412.0,0.65,-31.51,-32.07,0,*45
1487059306.36,14818,11.81,74408.8,0.65,-31.45,-31.95,0,*47
1487059307.57,14819,11.81,74408.5,0.65,-31.11,-31.67,0,*4A
1487059308.78,14820,11.81,74410.8,0.65,-31.11,-31.67,0,*40
1487059309.97,14821,11.81,74412.3,0.65,-31.17,-31.67,0,*47
1487059311.18,14822,11.81,74412.3,0.65,-31.33,-31.85,0,*4E
1487059312.42,14823,11.81,74410.3,0.67,-31.33,-31.95,0,*4C
1487059313.67,14824,11.81,74410.0,0.67,-31.85,-32.39,0,*43
1487059314.86,14825,11.81,74414.3,0.65,-31.67,-32.35,0,*40
1487059316.1,14826,11.81,74410.8,0.63,-31.91,-32.39,0,*40
1487059317.28,14827,11.81,74410.0,0.65,-31.67,-32.23,0,*45
1487059318.47,14828,11.81,74412.0,0.65,-31.67,-32.01,0,*4A
1487059319.68,14829,11.81,74412.0,0.65,-31.85,-32.39,0,*4C
1487059320.87,14830,11.81,74410.8,0.65,-31.67,-32.23,0,*43
1487059322.08,14831,11.81,74410.0,0.65,-31.95,-32.57,0,*4C
1487059323.3,14832,11.81,74408.5,0.65,-31.45,-32.07,0,*47
1487059324.48,14833,11.81,74410.3,0.65,-31.67,-32.35,0,*47
1487059325.72,14834,11.81,74410.0,0.63,-32.29,-32.91,0,*41
1487059326.97,14835,11.81,74410.5,0.63,-31.85,-32.39,0,*47
1487059328.15,14836,11.81,74410.5,0.65,-32.01,-32.57,0,*45
1487059329.34,14837,11.81,74410.0,0.65,-31.17,-31.79,0,*4F
1487059330.58,14838,11.81,74408.8,0.63,-31.57,-32.13,0,*4D
1487059331.81,14839,11.81,74412.3,0.63,-31.05,-31.57,0,*48
1487059333.02,14840,11.81,74410.8,0.65,-31.01,-31.61,0,*41
1487059334.26,14841,11.81,74410.3,0.65,-31.51,-32.07,0,*46
1487059335.45,14842,11.81,74410.0,0.65,-31.45,-32.01,0,*46
1487059336.64,14843,11.81,74408.8,0.65,-31.17,-31.79,0,*4C
1487059337.85,14844,11.81,74412.0,0.65,-31.79,-32.19,0,*46
1487059339.04,14845,11.81,74410.3,0.65,-31.17,-31.79,0,*4A
1487059340.28,14846,11.81,74408.5,0.67,-31.11,-31.79,0,*4D
1487059341.5,14847,11.81,74408.8,0.67,-31.17,-31.79,0,*4A
1487059342.74,14848,11.81,74414.8,0.67,-31.33,-31.85,0,*40
1487059343.98,14849,11.81,74414.8,0.67,-31.45,-31.85,0,*40
1487059345.23,14850,11.81,74410.5,0.67,-31.85,-32.39,0,*40
1487059346.47,14851,11.81,74408.5,0.67,-31.67,-32.07,0,*40
1487059347.72,14852,11.81,74408.3,0.69,-31.11,-31.61,0,*4F
1487059348.97,14853,11.81,74408.5,0.67,-30.77,-31.29,0,*4D
1487059350.18,14854,11.81,74410.8,0.69,-30.33,-30.73,0,*4A
1487059351.41,14855,11.81,74408.0,0.69,-30.33,-30.77,0,*4F
1487059352.62,14856,11.81,74412.8,0.73,-30.73,-31.33,0,*42
1487059353.83,14857,11.81,74418.3,0.73,-30.83,-31.39,0,*46
1487059355.09,14858,11.81,74410.5,0.77,-30.39,-30.77,0,*47
1487059356.29,14859,11.81,74404.0,0.77,-30.67,-31.17,0,*4A
1487059357.48,14860,11.81,74402.0,0.73,-30.67,-31.33,0,*42
1487059358.73,14861,11.81,74404.0,0.77,-30.95,-31.51,0,*4E
1487059359.94,14862,11.81,74404.8,0.77,-30.83,-31.45,0,*4F
1487059361.15,14863,11.81,74404.0,0.77,-30.83,-31.45,0,*4E
1487059362.35,14864,11.81,74398.3,0.77,-31.29,-31.79,0,*47
1487059363.57,14865,11.81,74402.5,0.79,-31.17,-31.67,0,*4A
1487059364.85,14866,11.81,74404.5,0.79,-30.95,-31.51,0,*47
1487059366.1,14867,11.81,74402.3,0.81,-30.89,-31.39,0,*42
1487059367.38,14868,11.81,74406.5,0.79,-30.95,-31.51,0,*49
1487059368.63,14869,11.81,74410.3,0.79,-30.61,-31.17,0,*41
1487059369.86,14870,11.81,74408.5,0.79,-30.67,-31.17,0,*4F
1487059371.09,14871,11.81,74410.5,0.81,-31.05,-31.57,0,*48
1487059372.37,14872,11.81,74410.5,0.83,-31.23,-31.73,0,*4B
1487059373.6,14873,11.81,74404.3,0.83,-31.45,-32.13,0,*4F
1487059374.86,14874,11.81,74408.8,0.83,-31.45,-31.95,0,*45
1487059376.12,14875,11.81,74406.8,0.83,-31.61,-32.13,0,*4F
1487059377.37,14876,11.81,74408.5,0.79,-31.45,-31.91,0,*46
1487059378.6,14877,11.81,74408.3,0.81,-30.89,-31.29,0,*42
1487059379.84,14878,11.81,74410.8,0.85,-30.33,-30.77,0,*42
1487059381.04,14879,11.81,74408.3,0.85,-30.45,-30.83,0,*49
1487059382.28,14880,11.81,74406.5,0.85,-30.17,-30.67,0,*42
1487059383.54,14881,11.81,74412.5,0.83,-30.33,-30.73,0,*46
1487059384.81,14882,11.81,74408.8,0.87,-30.55,-31.23,0,*45
1487059386.04,14883,11.81,74410.0,0.89,-30.77,-31.33,0,*4B
1487059387.31,14884,11.81,74410.0,0.87,-30.89,-31.39,0,*49
1487059388.57,14885,11.81,74410.8,0.87,-30.83,-31.39,0,*42
1487059389.79,14886,11.81,74410.0,0.89,-30.61,-31.01,0,*48
1487059391.06,14887,11.81,74408.3,0.87,-30.55,-31.23,0,*40
1487059392.29,14888,11.81,74410.0,0.89,-30.61,-31.01,0,*46
1487059393.51,14889,11.81,74408.3,0.89,-31.73,-32.35,0,*41
1487059394.77,14890,11.81,74410.5,0.89,-31.61,-32.07,0,*4B
1487059395.97,14891,11.81,74412.5,0.89,-31.33,-31.67,0,*48
1487059397.22,14892,11.81,74410.5,0.89,-31.11,-31.73,0,*4E
1487059398.44,14893,11.81,74408.8,0.89,-31.01,-31.51,0,*4E
1487059399.66,14894,11.81,74412.5,0.89,-30.95,-31.33,0,*41
1487059400.91,14895,11.81,74410.0,0.89,-30.95,-31.51,0,*44
1487059402.2,14896,11.81,74408.5,0.91,-31.11,-31.61,0,*40
1487059403.45,14897,11.81,74412.0,0.91,-30.61,-31.05,0,*45
1487059404.71,14898,11.81,74414.8,0.91,-30.95,-31.45,0,*45
1487059405.97,14899,11.81,74412.8,0.91,-30.77,-31.45,0,*48
1487059407.23,14900,11.81,74412.3,0.93,-30.77,-31.39,0,*40
1487059408.48,14901,11.81,74412.3,0.91,-31.11,-31.67,0,*49
1487059409.74,14902,11.81,74412.0,0.91,-31.29,-31.85,0,*4D
1487059410.97,14903,11.81,74416.3,0.93,-31.11,-31.67,0,*49
1487059412.23,14904,11.81,74418.3,0.93,-31.23,-31.61,0,*49
1487059413.46,14905,11.81,74416.0,0.93,-30.23,-30.61,0,*48
1487059414.69,14906,11.81,74408.5,0.93,-30.89,-31.45,0,*4C
1487059415.92,14907,11.81,74408.0,0.93,-31.45,-31.85,0,*40
1487059417.15,14908,11.81,74408.0,0.93,-32.63,-33.37,0,*43
1487059418.38,14909,11.81,74410.0,0.93,-31.61,-32.13,0,*44
1487059419.63,14910,11.81,74408.0,0.93,-30.95,-31.39,0,*4D
1487059420.86,14911,11.81,74408.5,0.93,-31.05,-31.61,0,*49
1487059422.09,14912,11.81,74410.8,0.93,-31.23,-31.67,0,*48
1487059423.34,14913,11.81,74406.8,0.93,-30.77,-31.23,0,*49
1487059424.57,14914,11.81,74406.0,0.93,-31.67,-32.29,0,*47
1487059425.79,14915,11.81,74406.8,0.97,-31.01,-31.51,0,*4E
1487059427.0,14916,11.81,74406.5,0.97,-30.67,-31.17,0,*4E
1487059428.23,14917,11.81,74406.0,0.97,-30.73,-31.33,0,*4C
1487059429.48,14918,11.81,74408.3,0.97,-31.51,-32.07,0,*46
1487059430.71,14919,11.81,74408.0,0.97,-31.05,-31.61,0,*45
1487059431.96,14920,11.81,74410.0,0.97,-30.51,-30.89,0,*48
1487059433.22,14921,11.81,74414.5,0.99,-30.51,-31.17,0,*41
1487059434.44,14922,11.81,74416.0,0.97,-30.73,-31.33,0,*4A
1487059435.72,14923,11.81,74410.5,0.99,-30.55,-31.23,0,*40
1487059437.0,14924,11.81,74408.8,0.99,-31.51,-31.95,0,*4F
1487059438.26,14925,11.81,74414.3,0.99,-31.17,-31.61,0,*47
1487059439.51,14926,11.81,74414.3,0.99,-30.51,-31.05,0,*45
1487059440.77,14927,11.75,74402.8,0.99,-30.33,-30.73,0,*40
1487059442.0,14928,11.81,74404.0,1.03,-30.23,-30.67,0,*79
1487059443.25,14929,11.81,74408.8,1.03,-31.17,-31.85,0,*73
1487059444.49,14930,11.81,74408.5,1.01,-31.45,-31.91,0,*7B
1487059445.72,14931,11.81,74408.5,1.01,-30.77,-31.29,0,*79
1487059446.97,14932,11.81,74408.8,1.03,-31.17,-31.51,0,*70
1487059448.22,14933,11.75,74404.5,1.03,-30.45,-30.95,0,*7E
1487059449.47,14934,11.81,74408.8,1.03,-30.61,-31.17,0,*74
1487059450.73,14935,11.81,74408.8,1.03,-30.33,-30.77,0,*75
1487059451.97,14936,11.81,74408.0,1.03,-30.33,-30.83,0,*7D
1487059453.2,14937,11.81,74410.5,1.03,-30.33,-30.83,0,*7C
1487059454.45,14938,11.81,74408.5,1.05,-30.39,-30.95,0,*78
1487059455.7,14939,11.81,74410.8,1.07,-30.45,-30.95,0,*70
1487059456.98,14940,11.81,74408.5,1.07,-30.61,-31.11,0,*75
1487059458.25,14941,11.81,74406.8,1.07,-30.73,-31.29,0,*7C
1487059459.5,14942,11.81,74410.3,1.09,-31.05,-31.61,0,*7D
1487059460.76,14943,11.81,74406.5,1.09,-30.73,-31.17,0,*7D
1487059461.99,14944,11.81,74406.0,1.09,-30.67,-31.17,0,*7F
1487059463.27,14945,11.81,74408.0,1.09,-30.89,-31.39,0,*72
1487059464.52,14946,11.81,74408.5,1.09,-30.55,-31.17,0,*7C
1487059465.78,14947,11.81,74412.8,1.09,-30.51,-31.17,0,*79
1487059467.03,14948,11.81,74408.5,1.09,-30.39,-31.01,0,*7F
1487059468.26,14949,11.81,74410.8,1.11,-31.73,-32.39,0,*70
1487059469.52,14950,11.81,74408.3,1.09,-31.61,-32.23,0,*79
1487059470.78,14951,11.81,74408.5,1.09,-31.45,-32.07,0,*78
1487059471.99,14952,11.81,74406.3,1.11,-31.17,-31.67,0,*70
1487059473.24,14953,11.81,74406.5,1.11,-31.51,-32.07,0,*76
1487059474.45,14954,11.81,74408.3,1.11,-31.17,-31.67,0,*76
1487059475.7,14955,11.75,74406.0,1.09,-31.01,-31.39,0,*72
1487059476.94,14956,11.81,74410.3,1.11,-30.83,-31.39,0,*73
1487059478.22,14957,11.81,74408.3,1.13,-31.11,-31.51,0,*74
1487059479.48,14958,11.81,74416.3,1.09,-31.17,-31.61,0,*75
1487059480.72,14959,11.75,74410.8,1.11,-30.95,-31.29,0,*7A
1487059481.95,14960,11.81,74410.0,1.11,-30.83,-31.39,0,*76
1487059483.16,14961,11.75,74408.5,1.11,-30.83,-31.29,0,*76
1487059484.37,14962,11.81,74410.3,1.11,-30.83,-31.33,0,*7E
1487059485.6,14963,11.81,74410.8,1.15,-30.61,-31.05,0,*72
1487059486.87,14964,11.75,74410.3,1.15,-30.73,-31.23,0,*72
1487059488.12,14965,11.81,74414.5,1.13,-31.17,-31.57,0,*75
1487059489.38,14966,11.81,74412.8,1.13,-30.95,-31.33,0,*7F
1487059490.63,14967,11.75,74410.5,1.13,-31.51,-32.01,0,*75
1487059491.87,14968,11.75,74414.5,1.11,-32.57,-33.31,0,*7F
1487059493.1,14969,11.81,74416.0,1.11,-31.33,-31.85,0,*72
1487059494.33,14970,11.75,74412.3,1.13,-30.83,-31.33,0,*7F
1487059495.6,14971,11.81,74414.8,1.13,-31.85,-32.39,0,*70
1487059496.88,14972,11.75,74410.0,1.13,-32.45,-33.09,0,*7E
1487059498.1,14973,11.75,74412.5,1.11,-32.23,-32.63,0,*70
1487059499.31,14974,11.81,74414.0,1.11,-31.29,-31.67,0,*79
1487059500.6,14975,11.81,74416.3,1.09,-31.23,-31.61,0,*7D
1487059501.8,14976,11.81,74416.0,1.11,-30.83,-31.33,0,*7B
1487059503.08,14977,11.75,74412.8,1.09,-30.39,-30.89,0,*72
1487059504.32,14978,11.81,74414.5,1.11,-30.61,-31.17,0,*7F
1487059505.57,14979,11.81,74414.0,1.13,-30.51,-31.01,0,*78
1487059506.82,14980,11.75,74410.8,1.13,-30.33,-30.95,0,*76
1487059508.11,14981,11.81,74414.0,1.13,-31.11,-31.51,0,*7F
1487059509.39,14982,11.81,74414.5,1.13,-31.91,-32.63,0,*76
1487059510.6,14983,11.75,74410.8,1.11,-31.33,-31.67,0,*7A
1487059511.83,14984,11.75,74412.3,1.13,-31.67,-32.23,0,*7D
1487059513.06,14985,11.81,74416.5,1.13,-31.29,-31.67,0,*75
1487059514.34,14986,11.81,74416.0,1.13,-30.77,-31.39,0,*77
1487059515.63,14987,11.81,74414.8,1.13,-32.07,-32.63,0,*7F
1487059516.86,14988,11.81,74412.8,1.11,-31.73,-32.35,0,*71
1487059518.07,14989,11.81,74414.5,1.11,-31.33,-32.01,0,*73
1487059519.32,14990,11.81,74416.8,1.09,-31.79,-32.29,0,*76
1487059520.55,14991,11.81,74418.5,1.11,-30.77,-31.29,0,*72
1487059521.79,14992,11.81,74414.0,1.11,-30.83,-31.39,0,*7B
1487059523.03,14993,11.81,74412.8,1.11,-32.01,-32.45,0,*7A
1487059524.28,14994,11.81,74412.8,1.11,-31.11,-31.57,0,*7F
1487059525.49,14995,11.75,74410.5,1.11,-31.17,-31.67,0,*7B
1487059526.69,14996,11.81,74422.8,1.11,-31.33,-32.01,0,*7D
1487059527.95,14997,11.81,74420.3,1.11,-31.39,-31.85,0,*79
1487059529.17,14998,11.81,74410.3,1.11,-31.39,-32.01,0,*79
1487059530.45,14999,11.75,74406.0,1.13,-31.51,-31.85,0,*7B
1487059531.69,15000,11.81,74408.0,1.11,-31.67,-32.19,0,*72
1487059532.91,15001,11.81,74404.3,1.11,-32.23,-32.97,0,*76
1487059534.19,15002,11.81,74404.3,1.09,-33.31,-33.89,0,*70
1487059535.42,15003,11.81,74404.3,1.09,-32.51,-33.37,0,*73
1487059536.69,15004,11.81,74404.3,1.09,-32.07,-32.69,0,*7D
1487059537.94,15005,11.75,74408.0,1.09,-33.03,-33.73,0,*73
1487059539.18,15006,11.81,74410.3,1.05,-32.69,-33.43,0,*72
1487059540.43,15007,11.81,74408.5,1.05,-32.29,-32.85,0,*7C
1487059541.69,15008,11.75,74408.3,1.05,-31.95,-32.45,0,*7B
1487059542.93,15009,11.81,74414.3,1.05,-31.79,-32.45,0,*78
1487059544.18,15010,11.75,74412.8,1.05,-31.85,-32.45,0,*73
1487059545.42,15011,11.75,74412.5,1.05,-31.67,-32.19,0,*77
1487059546.65,15012,11.75,74412.0,1.05,-31.23,-31.67,0,*7E
1487059547.91,15013,11.81,74416.3,1.07,-30.89,-31.29,0,*76
1487059549.14,15014,11.75,74412.8,1.05,-31.11,-31.67,0,*79
1487059550.39,15015,11.75,74416.5,1.05,-30.61,-31.11,0,*7F
1487059551.68,15016,11.75,74418.8,1.07,-30.61,-31.11,0,*7E
1487059552.96,15017,11.75,74420.3,1.07,-30.55,-31.11,0,*78
1487059554.24,15018,11.81,74420.5,1.07,-30.73,-31.11,0,*73
1487059555.49,15019,11.81,74426.5,1.09,-31.17,-31.57,0,*7D
1487059556.75,15020,11.81,74422.5,1.09,-30.89,-31.45,0,*72
1487059557.99,15021,11.75,74412.0,1.11,-31.29,-31.85,0,*7D
1487059559.24,15022,11.75,74408.5,1.09,-32.13,-32.85,0,*7E
1487059560.5,15023,11.75,74412.3,1.09,-33.03,-33.77,0,*73
1487059561.75,15024,11.81,74414.3,1.09,-33.89,-34.47,0,*72
1487059563.0,15025,11.75,74408.5,1.07,-33.55,-34.19,0,*77
1487059564.22,15026,11.75,74400.8,1.05,-32.69,-33.37,0,*73
1487059565.45,15027,11.81,74402.8,1.05,-32.57,-33.27,0,*7E
1487059566.71,15028,11.75,74400.8,1.03,-32.51,-33.09,0,*7D
1487059567.99,15029,11.81,74406.0,1.03,-32.63,-33.27,0,*71
1487059569.27,15030,11.75,74402.8,1.03,-32.75,-33.31,0,*79
1487059570.49,15031,11.81,74406.0,1.01,-32.35,-32.97,0,*73
1487059571.7,15032,11.75,74406.8,1.01,-32.39,-32.91,0,*7A
1487059572.98,15033,11.81,74406.0,0.99,-32.79,-33.31,0,*44
1487059574.24,15034,11.81,74410.8,0.99,-31.91,-32.39,0,*4F
1487059575.52,15035,11.81,74412.8,0.99,-31.91,-32.45,0,*45
1487059576.78,15036,11.81,74416.3,0.99,-31.79,-32.45,0,*40
1487059578.03,15037,11.75,74410.5,1.01,-32.19,-32.63,0,*70
1487059579.28,15038,11.75,74408.8,1.01,-32.97,-33.77,0,*7D
1487059580.49,15039,11.81,74402.5,0.97,-32.57,-33.03,0,*4D
1487059581.74,15040,11.75,74396.3,0.97,-32.29,-32.85,0,*45
1487059583.02,15041,11.75,74398.0,0.99,-32.85,-33.73,0,*44
1487059584.25,15042,11.75,74406.8,0.99,-33.95,-34.59,0,*48
1487059585.47,15043,11.75,74406.0,0.97,-33.15,-33.89,0,*45
1487059586.69,15044,11.81,74410.3,0.97,-33.15,-33.73,0,*47
1487059587.95,15045,11.75,74402.5,0.91,-32.01,-32.63,0,*44
1487059589.19,15046,11.75,74410.0,0.91,-32.01,-32.51,0,*46
1487059590.39,15047,11.81,74410.8,0.93,-31.79,-32.35,0,*4B
1487059591.63,15048,11.75,74408.3,0.93,-31.61,-32.51,0,*4F
1487059592.85,15049,11.75,74402.0,0.91,-32.35,-33.03,0,*48
1487059594.08,15050,11.75,74404.0,0.91,-32.51,-33.03,0,*42
1487059595.3,15051,11.75,74404.5,0.93,-31.67,-32.29,0,*4E
1487059596.53,15052,11.75,74406.3,0.91,-32.51,-33.21,0,*40
1487059597.76,15053,11.75,74404.8,0.93,-33.43,-34.13,0,*47
1487059598.98,15054,11.75,74406.5,0.91,-32.35,-33.03,0,*44
1487059600.23,15055,11.75,74406.3,0.91,-32.91,-33.61,0,*4F
1487059601.49,15056,11.75,74410.8,0.91,-31.95,-32.51,0,*49
1487059602.72,15057,11.81,74408.5,0.89,-31.91,-32.39,0,*4B
1487059603.94,15058,11.81,74408.5,0.89,-31.67,-32.19,0,*4F
1487059605.17,15059,11.75,74414.0,0.89,-31.91,-32.39,0,*45
1487059606.43,15060,11.75,74412.8,0.91,-32.85,-33.37,0,*4F
1487059607.66,15061,11.75,74412.3,0.89,-31.73,-32.35,0,*4E
1487059608.88,15062,11.75,74410.5,0.89,-31.29,-31.85,0,*4A
1487059610.11,15063,11.75,74416.5,0.89,-31.45,-31.73,0,*48
1487059611.34,15064,11.75,74412.5,0.91,-31.29,-31.79,0,*46
1487059612.59,15065,11.75,74416.3,0.93,-31.11,-31.57,0,*42
1487059613.84,15066,11.75,74414.5,0.91,-31.05,-31.57,0,*46
1487059615.06,15067,11.75,74414.3,0.93,-31.05,-31.61,0,*40
1487059616.29,15068,11.75,74404.0,0.93,-31.45,-31.95,0,*40
1487059617.52,15069,11.75,74404.5,0.93,-31.67,-32.29,0,*45
1487059618.77,15070,11.75,74406.3,0.93,-31.39,-31.85,0,*43
1487059619.96,15071,11.75,74410.0,0.93,-32.35,-33.03,0,*41
1487059621.22,15072,11.75,74410.5,0.93,-32.75,-33.43,0,*42
1487059622.48,15073,11.75,74410.3,0.91,-33.03,-33.77,0,*46
1487059623.76,15074,11.75,74406.3,0.91,-32.45,-32.75,0,*41
1487059625.01,15075,11.75,74410.5,0.93,-32.29,-32.75,0,*48
1487059626.24,15076,11.75,74410.0,0.93,-31.57,-32.01,0,*42
1487059627.5,15077,11.75,74414.5,0.91,-31.61,-32.13,0,*47
1487059628.75,15078,11.75,74412.8,0.91,-31.45,-31.85,0,*42
1487059630.01,15079,11.75,74414.5,0.93,-31.23,-31.61,0,*4B
1487059631.27,15080,11.75,74414.3,0.93,-30.89,-31.39,0,*41
1487059632.52,15081,11.75,74412.3,0.93,-30.73,-31.23,0,*4E
1487059633.75,15082,11.75,74408.8,0.97,-31.57,-32.13,0,*4E
1487059635.01,15083,11.75,74406.5,0.97,-31.57,-31.95,0,*42
1487059636.24,15084,11.75,74406.0,0.93,-31.45,-31.95,0,*42
1487059637.47,15085,11.75,74402.0,0.93,-32.29,-32.91,0,*4D
1487059638.73,15086,11.75,74402.8,0.93,-32.19,-32.75,0,*47
1487059639.95,15087,11.75,74398.8,0.93,-32.45,-33.03,0,*4F
1487059641.17,15088,11.75,74396.0,0.93,-32.91,-33.61,0,*4D
1487059642.42,15089,11.75,74402.0,0.91,-32.45,-33.03,0,*43
1487059643.68,15090,11.75,74396.8,0.91,-33.21,-33.89,0,*4A
1487059644.91,15091,11.75,74400.0,0.91,-32.13,-32.69,0,*44
1487059646.18,15092,11.75,74402.5,0.91,-32.69,-33.27,0,*41
1487059647.43,15093,11.75,74400.3,0.91,-32.63,-33.21,0,*4C
1487059648.66,15094,11.75,74400.8,0.89,-31.85,-32.35,0,*4D
1487059649.91,15095,11.75,74404.8,0.87,-32.45,-33.03,0,*49
1487059651.19,15096,11.75,74406.3,0.87,-31.57,-31.95,0,*47
1487059652.41,15097,11.75,74404.5,0.89,-31.51,-32.01,0,*40
1487059653.63,15098,11.75,74414.3,0.89,-32.91,-33.49,0,*4D
1487059654.91,15099,11.75,74414.3,0.87,-31.95,-32.45,0,*48
1487059656.12,15100,11.75,74410.3,0.89,-32.01,-32.51,0,*4C
1487059657.33,15101,11.75,74414.0,0.89,-32.01,-32.39,0,*43
1487059658.55,15102,11.75,74412.5,0.89,-31.33,-31.73,0,*4F
1487059659.77,15103,11.75,74416.5,0.89,-32.07,-32.57,0,*4F
1487059661.03,15104,11.75,74402.3,0.91,-31.85,-32.35,0,*4C
1487059662.26,15105,11.75,74398.0,0.89,-31.73,-32.35,0,*4D
1487059663.48,15106,11.75,74394.8,0.89,-31.91,-32.35,0,*42
1487059664.73,15107,11.75,74402.3,0.89,-32.79,-33.49,0,*4C
1487059665.97,15108,11.75,74408.3,0.89,-32.69,-33.31,0,*4D
1487059667.22,15109,11.75,74406.8,0.87,-32.39,-32.79,0,*4A
1487059668.45,15110,11.75,74410.3,0.89,-31.85,-32.39,0,*4C
1487059669.68,15111,11.75,74406.8,0.89,-31.73,-32.35,0,*48
1487059670.88,15112,11.75,74408.0,0.89,-31.45,-32.01,0,*49
1487059672.1,15113,11.75,74406.3,0.89,-31.51,-32.01,0,*4D
1487059673.36,15114,11.75,74418.0,0.89,-32.19,-32.75,0,*46
1487059674.62,15115,11.75,74410.8,0.87,-32.07,-32.39,0,*4E
1487059675.87,15116,11.75,74410.8,0.89,-31.73,-32.19,0,*41
1487059677.12,15117,11.75,74410.3,0.89,-31.51,-32.07,0,*4F
1487059678.38,15118,11.75,74404.3,0.91,-31.57,-32.01,0,*49
1487059679.61,15119,11.75,74410.8,0.89,-31.73,-32.23,0,*47
1487059680.8,15120,11.75,74412.5,0.89,-31.67,-32.01,0,*48
1487059682.02,15121,11.75,74414.8,0.89,-32.07,-32.57,0,*4F
1487059683.25,15122,11.75,74410.8,0.89,-31.85,-32.35,0,*41
1487059684.45,15123,11.75,74406.8,0.89,-32.23,-32.69,0,*46
1487059685.65,15124,11.75,74408.5,0.89,-31.67,-32.23,0,*4C
1487059686.88,15125,11.75,74414.5,0.89,-31.85,-32.35,0,*46
1487059688.1,15126,11.75,74400.8,0.89,-31.67,-32.19,0,*47
1487059689.36,15127,11.75,74414.8,0.87,-32.85,-33.37,0,*4A
1487059690.59,15128,11.75,74408.8,0.89,-32.19,-32.69,0,*44
1487059691.81,15129,11.75,74406.5,0.87,-31.67,-32.23,0,*4F
1487059693.04,15130,11.75,74402.8,0.89,-31.85,-32.23,0,*45
1487059694.3,15131,11.75,74406.8,0.91,-31.23,-31.45,0,*42
1487059695.56,15132,11.75,74414.8,0.91,-32.01,-32.63,0,*45
1487059696.79,15133,11.75,74416.0,0.91,-31.67,-32.01,0,*43
1487059698.04,15134,11.75,74416.8,0.91,-31.67,-32.29,0,*4E
1487059699.29,15135,11.75,74408.0,0.91,-31.45,-31.85,0,*4A
1487059700.55,15136,11.75,74414.0,0.91,-31.57,-32.01,0,*45
1487059701.8,15137,11.75,74408.3,0.91,-31.57,-32.01,0,*44
1487059703.06,15138,11.75,74412.0,0.91,-31.57,-32.13,0,*48